User: anonymous   Login
Location: Dampvalley
(47.9094°N, 6.1967°E)
Time: 14:47:05
(UTC+00:00)
Language:

Landsat 5 - Orbit

View from above orbital plane
View from above orbital plane
View from above satellite
View from above satellite

Ground track
Ground track

The orbit data is extracted from the following two-line orbital elements,

1 14780U 84021A   21128.73318180 -.00000011  00000-0  53215-5 0  9994
2 14780  98.2029 304.5714 0089847 175.3781 184.8288 14.92272890512285
Epoch (UTC): 08 May 2021 17:35:46
Eccentricity: 0.0089847
inclination: 98.2029°
perigee height: 528 km
apogee height: 653 km
right ascension of ascending node: 304.5714°
argument of perigee: 175.3781°
revolutions per day: 14.92272890
mean anomaly at epoch: 184.8288°
orbit number at epoch: 51228

The dashed part of the orbit path shows where the satellite is in the earth's shadow,  

DLR